Location: Capvern
(43.1036°N, 0.3160°E)
Time: 05:28:40
(UTC+00:00)

Cosmos 489 Rocket - Pass Details

Date: 30 May 2022
Orbit: 952 x 983 km, 74.0° (Epoch: 03 July)

Event Time Altitude Azimuth Distance (km) Brightness Sun altitude
Rises 03:16:06 0° 338° (NNW) 3,646 7.8 -10.5°
Reaches altitude 10° 03:18:38 10° 338° (NNW) 2,700 7.1 -10.2°
Maximum altitude 03:24:53 83° 252° (WSW) 977 4.5 -9.4°
Drops below altitude 10° 03:31:09 10° 165° (SSE) 2,703 6.6 -8.5°
Sets 03:33:41 0° 165° (SSE) 3,651 7.2 -8.2°
